KOSEN 1
1 49402U 21102H   25329.69078345  .00010477  00000-0  44433-3 0  9998
2 49402  97.3494  10.9390 0014177 199.8130 160.2559 15.23208028223006
HO-113
1 50466U 21131B   25329.84761985  .00000738  00000-0  24295-3 0  9991
2 50466  98.5064  58.3540 0003921   4.8288 355.2937 14.41077899205826
SNUGLITE 2
1 52899U 22065F   25329.37138627  .00001603  00000-0  31669-3 0  9994
2 52899  98.1919 110.0042 0006564 309.2127  50.8492 14.63762339181175
UmKA 1 (RS40S)
1 57172U 23091G   25329.80120515  .00008597  00000-0  42680-3 0  9992
2 57172  97.5360  24.3414 0015117 106.7006 253.5888 15.17834889133120
CubeBel-2 (EU11S)
1 57175U 23091K   25329.77765176  .00015656  00000-0  65904-3 0  9997
2 57175  97.5359  26.6573 0012390 109.5951 250.6624 15.23389363133273
SONATE-2
1 59112U 24043Q   25329.35330996  .00034145  00000-0  75333-3 0  9991
2 59112  97.5330 104.9746 0008762 226.0606 133.9920 15.43783733 96290
MO-122
1 60209U 24125G   25329.56573286  .00039639  00000-0  84261-3 0  9998
2 60209  97.2539 179.9420 0013436 246.5841 113.3995 15.44795862 77953
GRBBeta
1 60237U 24128C   25329.73837898  .00005863  00000-0  41666-3 0  9997
2 60237  61.9890 209.0201 0056799  93.2329 267.5263 15.04517471 75638
Curium One
1 60242U 24128H   25329.82813984  .00010896  00000-0  68317-3 0  9997
2 60242  61.9780 203.9750 0056773  90.1570 270.6029 15.08455844 75735
ROBUSTA-3A
1 60243U 24128J   25329.82445159  .00011089  00000-0  70645-3 0  9995
2 60243  61.9861 205.4480 0056762  87.7206 273.0385 15.07861174 75715
CatSat
1 60246U 24125J   25329.58179522  .00044639  00000-0  11356-2 0  9996
2 60246  97.2341 177.1686 0033713 207.2606 152.6872 15.38869473 75885
HYPERVIEW-1G (RS66S)
1 61772U 24199AP  25329.85907546  .00049159  00000-0  10023-2 0  9999
2 61772  97.3223 199.1039 0009298 313.5265  46.5211 15.46024266103005
AO-123
1 61781U 24199AY  25329.88282669  .00012083  00000-0  39905-3 0  9991
2 61781  97.3259 195.5219 0013886 323.0401  36.9883 15.31446754102764
ZIMSAT 2
1 61783U 24199BA  25329.89659981  .00179309  00000-0  17316-2 0  9995
2 61783  97.3126 202.1176 0004581 314.3339  45.7545 15.65883322106367
HADES-R (SO-124)
1 62690U 25009CK  25329.20505036  .00146440  00000-0  23414-2 0  9996
2 62690  97.3905  51.2372 0002537 229.1719 130.9314 15.52629965 48054
HYDRA-T
1 62692U 25009CM  25328.74938966  .00160887  00000-0  24710-2 0  9999
2 62692  97.3903  50.9307 0002395 234.2984 125.8046 15.53697298 47993
JINJUSat 1B
1 63210U 25052A   25329.67411569  .00020763  00000-0  81074-3 0  9997
2 63210  97.4200 221.9453 0006138  84.5522 275.6416 15.25905237 38984
NUSHSAT 1
1 63211U 25052B   25329.68044962  .00023931  00000-0  90797-3 0  9990
2 63211  97.4184 222.0514 0006124  86.2489 273.9450 15.26832345 38992
TEVEL2-4
1 63213U 25052D   25329.67416157  .00022715  00000-0  87827-3 0  9999
2 63213  97.4106 221.6316 0005134  95.1534 265.0291 15.26221415 38987
TEVEL2-5
1 63214U 25052E   25329.67883595  .00021898  00000-0  84856-3 0  9994
2 63214  97.4106 221.6265 0005099  96.7618 263.4201 15.26155266 38984
TEVEL2-6
1 63215U 25052F   25329.68561400  .00022026  00000-0  85466-3 0  9996
2 63215  97.4107 221.6217 0005191  97.1098 263.0731 15.26108338 38985
TEVEL2-1
1 63217U 25052H   25329.65916693  .00022506  00000-0  88142-3 0  9990
2 63217  97.4081 221.4206 0004979 105.8525 254.3262 15.25795667 38976
TEVEL2-3
1 63218U 25052J   25329.65859612  .00022929  00000-0  89736-3 0  9997
2 63218  97.4082 221.4248 0004994 106.6313 253.5474 15.25814706 38977
TEVEL2-2
1 63219U 25052K   25329.65994853  .00022461  00000-0  87967-3 0  9990
2 63219  97.4080 221.4218 0004972 106.4626 253.7158 15.25796277 38977
TEVEL2-9
1 63237U 25052AD  25329.67211575  .00020718  00000-0  84714-3 0  9995
2 63237  97.4140 221.1640 0008479 129.3084 230.8907 15.24346115 38944
TEVEL2-7
1 63238U 25052AE  25329.68441760  .00020160  00000-0  82779-3 0  9998
2 63238  97.4146 221.1538 0008535 128.2600 231.9407 15.24208823 38942
TEVEL2-8
1 63239U 25052AF  25329.68975972  .00020037  00000-0  82345-3 0  9998
2 63239  97.4146 221.1443 0008519 128.8268 231.3731 15.24182036 38947
HYDRA-W
1 63490U 25052BL  25329.67546611  .00076628  00000-0  20056-2 0  9997
2 63490  97.4066 223.2515 0010795 115.5326 244.7037 15.38382708 39094
HADES-ICM (SO-125)
1 63492U 25052BN  25329.65056650  .00067617  00000-0  18673-2 0  9996
2 63492  97.4080 223.0016 0010816 119.3321 240.9005 15.36759708 39074
Dragonfly
1 65729U 98067XH  25329.41083549  .00143850  00000-0  13578-2 0  9991
2 65729  51.6251 224.0765 0006159 178.8848 181.2162 15.66035145 10448
RSP-03
1 65732U 98067XL  25329.12692466  .00117113  00000-0  12086-2 0  9993
2 65732  51.6285 225.9317 0006858 154.1951 205.9387 15.63889416 10404
GHS-01
1 65733U 98067XM  25329.13103960  .00170259  00000-0  15075-2 0  9992
2 65733  51.6287 225.2110 0006751 176.0216 184.0835 15.67520461 10412
BOTAN
1 65942U 98067XP  25329.10958018  .00100010  00000-0  12592-2 0  9992
2 65942  51.6298 228.0671 0004722 130.8647 229.2756 15.58820715  7113
CEVROSAT1
1 98526U 25248E   25313.13142326  .00000000  00000-0  19360-3 0    02
2 98526  45.4084 218.4764 0001315 254.8982 242.1062 15.17981583    02
